EZY27A LIBD-LDSP

Flight info

Callsign EZY27A
Flight time N/A
Altitude 24000
Route BANAV DCT RILIM
Aircraft A320/M-SDE3FGHIRWY/LB1

Departure

Time 2026-04-20 17:20
Airport Bari Karol Wojtyła International Airport (LIBD)

Arrival

Time N/A
Airport Split Saint Jerome Airport (LDSP)
Time Latitude Longitude Altitude Speed Heading
2026-04-20 17:19 41.15387 16.81521 2700 ft 218 kts 69°
2026-04-20 17:20 41.15944 16.83499 3080 ft 241 kts 68°
2026-04-20 17:20 41.16358 16.84957 3399 ft 258 kts 68°
2026-04-20 17:20 41.16996 16.87202 4211 ft 267 kts 68°
2026-04-20 17:20 41.17712 16.89497 5176 ft 272 kts 57°
2026-04-20 17:21 41.19002 16.91339 6172 ft 269 kts 30°
2026-04-20 17:21 41.20719 16.92226 7019 ft 272 kts
2026-04-20 17:21 41.22596 16.92024 7921 ft 273 kts 342°
2026-04-20 17:21 41.24439 16.91335 8898 ft 275 kts 342°
2026-04-20 17:22 41.26302 16.90641 9870 ft 279 kts 342°
2026-04-20 17:22 41.28158 16.89953 10720 ft 284 kts 342°
2026-04-20 17:22 41.30150 16.89213 11107 ft 308 kts 342°
2026-04-20 17:22 41.32294 16.88417 11471 ft 329 kts 342°
2026-04-20 17:23 41.34537 16.87594 12183 ft 337 kts 342°
2026-04-20 17:23 41.36861 16.87013 12995 ft 344 kts 353°
2026-04-20 17:23 41.39252 16.87171 13805 ft 353 kts
2026-04-20 17:23 41.41643 16.88087 14548 ft 359 kts 16°
2026-04-20 17:24 41.44008 16.89228 15299 ft 362 kts 16°
2026-04-20 17:24 41.46358 16.90366 16030 ft 365 kts 16°
2026-04-20 17:24 41.48758 16.91528 16764 ft 368 kts 16°
2026-04-20 17:24 41.51180 16.92698 17497 ft 372 kts 15°
2026-04-20 17:25 41.53626 16.93854 18220 ft 374 kts 14°
2026-04-20 17:25 41.56124 16.94902 18855 ft 376 kts 12°
2026-04-20 17:25 41.58656 16.95864 19495 ft 378 kts 11°
2026-04-20 17:25 41.61200 16.96781 20129 ft 381 kts 10°
2026-04-20 17:26 41.63780 16.97704 20768 ft 384 kts 10°
2026-04-20 17:26 41.66335 16.98635 21388 ft 387 kts 10°
2026-04-20 17:26 41.68942 16.99605 22002 ft 391 kts 10°
2026-04-20 17:26 41.71603 17.00429 22595 ft 389 kts
2026-04-20 17:27 41.74301 17.00661 23183 ft 386 kts 354°
2026-04-20 17:27 41.76939 17.00294 23709 ft 385 kts 347°
2026-04-20 17:27 41.79592 16.99734 23917 ft 386 kts 347°
2026-04-20 17:27 41.82260 16.99169 23959 ft 389 kts 347°
2026-04-20 17:28 41.84945 16.98605 23968 ft 391 kts 347°